Temp
-7 -8 -8 -8 -7 -6 -5 -5 -6 -7 -7 -8 -7 -8 -7 -7 -7 -7 -5 -6 -6 -6 -6 -6 -5 -5 -5 -4 -4 -4 -4 -4 -5 -5 -4 -4 -4 -4 -4 -4 -4 -4 -4 -5 -5 -5 -5 -5 -5
-7 -7 -8 -8 -7 -6 -5 -6 -6 -7 -8 -7 -7 -8 -7 -7 -7 -6 -5 -5 -6 -6 -6 -6 -6 -5 -5 -5 -4 -4 -4 -4 -4 -5 -5 -4 -4 -4 -4 -4 -4 -4 -4 -5 -5 -5 -5 -5 -5
-7 -7 -7 -7 -7 -6 -5 -7 -7 -8 -9 -7 -8 -8 -7 -8 -6 -6 -6 -5 -6 -6 -6 -6 -6 -6 -6 -5 -5 -5 -4 -4 -4 -4 -4 -5 -4 -4 -4 -4 -4 -5 -5 -5 -5 -6 -6 -6 -6
-7 -7 -7 -7 -7 -7 -6 -8 -7 -9 -9 -7 -9 -8 -7 -8 -6 -6 -6 -6 -7 -7 -7 -6 -6 -6 -6 -6 -6 -5 -5 -4 -4 -4 -4 -5 -4 -4 -4 -4 -5 -5 -5 -5 -5 -6 -6 -6 -6
-8 -7 -7 -7 -7 -7 -7 -9 -9 -9 -9 -9 -9 -8 -8 -7 -7 -7 -6 -6 -7 -7 -6 -6 -6 -6 -6 -6 -6 -6 -5 -5 -5 -5 -5 -5 -5 -5 -5 -5 -5 -5 -5 -5 -6 -6 -6 -7 -7
-7 -8 -7 -6 -7 -7 -8 -9 -9 -9 -11 -10 -10 -10 -9 -8 -8 -7 -6 -5 -7 -7 -6 -6 -6 -6 -6 -6 -6 -6 -6 -6 -6 -6 -6 -6 -6 -5 -5 -5 -5 -5 -6 -6 -6 -6 -7 -7 -7
-9 -9 -8 -8 -7 -7 -7 -9 -9 -9 -11 -11 -10 -10 -10 -8 -8 -7 -6 -5 -6 -7 -7 -6 -6 -6 -6 -7 -7 -7 -6 -7 -6 -6 -6 -6 -6 -6 -6 -6 -6 -6 -6 -6 -6 -6 -7 -7 -7
-11 -11 -10 -9 -8 -7 -8 -10 -10 -9 -11 -11 -11 -11 -10 -8 -7 -7 -7 -6 -6 -6 -7 -7 -6 -6 -6 -6 -6 -6 -6 -6 -7 -6 -6 -7 -7 -7 -6 -6 -6 -7 -7 -7 -6 -6 -6 -7 -7
-14 -13 -11 -11 -11 -9 -10 -11 -10 -9 -10 -11 -11 -11 -11 -10 -7 -8 -7 -6 -6 -6 -6 -6 -7 -7 -7 -7 -7 -7 -7 -6 -6 -7 -7 -7 -7 -7 -7 -7 -7 -7 -7 -7 -7 -7 -7 -7 -7
-15 -14 -14 -13 -13 -12 -13 -12 -11 -10 -10 -11 -11 -11 -11 -10 -8 -8 -8 -6 -6 -6 -6 -7 -7 -8 -8 -8 -7 -7 -7 -7 -7 -7 -7 -7 -7 -7 -8 -8 -7 -7 -8 -7 -7 -7 -7 -7 -8
-16 -16 -16 -15 -14 -14 -14 -12 -12 -12 -10 -10 -11 -11 -10 -9 -7 -6 -7 -6 -8 -5 -7 -8 -9 -9 -9 -9 -8 -8 -8 -8 -8 -8 -8 -8 -8 -8 -8 -8 -8 -8 -8 -8 -8 -8 -8 -8 -8
-16 -16 -16 -15 -15 -14 -14 -15 -13 -13 -11 -11 -11 -11 -9 -10 -10 -9 -8 -8 -7 -6 -7 -7 -10 -9 -9 -10 -9 -9 -9 -9 -8 -8 -8 -8 -8 -8 -8 -9 -9 -9 -9 -9 -9 -8 -8 -8 -8
-16 -16 -16 -15 -15 -15 -15 -15 -15 -14 -11 -12 -12 -12 -11 -11 -11 -9 -9 -8 -9 -8 -8 -8 -7 -8 -9 -10 -8 -8 -10 -9 -9 -9 -9 -9 -9 -9 -9 -9 -9 -9 -9 -9 -9 -9 -9 -9 -9
-16 -16 -16 -16 -15 -15 -15 -13 -13 -12 -11 -11 -11 -10 -10 -10 -11 -10 -9 -9 -9 -9 -8 -8 -7 -7 -9 -7 -8 -7 -7 -9 -8 -10 -10 -9 -9 -9 -9 -9 -9 -9 -9 -9 -10 -9 -9 -9 -9
-16 -16 -16 -16 -15 -14 -14 -11 -11 -12 -12 -11 -11 -10 -10 -10 -10 -10 -11 -10 -9 -10 -11 -11 -10 -9 -8 -9 -8 -9 -8 -9 -9 -9 -9 -10 -9 -9 -9 -9 -9 -9 -9 -9 -9 -9 -9 -10 -10
-15 -16 -16 -16 -15 -14 -14 -12 -12 -12 -12 -12 -11 -10 -10 -10 -10 -10 -9 -9 -10 -10 -10 -9 -9 -10 -9 -11 -9 -11 -11 -10 -9 -9 -9 -9 -9 -9 -9 -10 -10 -10 -9 -9 -9 -9 -9 -10 -10
-14 -14 -15 -14 -14 -14 -14 -13 -13 -13 -11 -11 -11 -11 -11 -10 -10 -10 -11 -10 -10 -10 -9 -9 -9 -9 -9 -10 -12 -11 -10 -10 -10 -10 -10 -11 -11 -11 -11 -10 -10 -10 -10 -10 -10 -10 -9 -9 -10
-14 -15 -16 -15 -15 -15 -15 -14 -13 -12 -12 -11 -11 -11 -11 -11 -11 -11 -10 -10 -10 -10 -10 -10 -10 -9 -9 -10 -11 -12 -11 -11 -11 -11 -11 -11 -11 -11 -10 -10 -10 -10 -10 -10 -10 -11 -10 -10 -10
-16 -16 -16 -16 -15 -15 -15 -15 -14 -14 -12 -11 -10 -10 -11 -11 -11 -11 -11 -10 -10 -10 -10 -10 -10 -11 -10 -10 -11 -11 -12 -12 -12 -12 -12 -12 -12 -12 -11 -10 -11 -10 -9 -9 -9 -10 -10 -10 -11
-16 -16 -15 -15 -16 -16 -16 -16 -16 -13 -13 -13 -12 -12 -11 -11 -10 -10 -11 -11 -11 -11 -10 -10 -10 -11 -11 -10 -10 -11 -11 -11 -12 -11 -12 -11 -12 -12 -11 -11 -10 -10 -10 -10 -10 -10 -10 -11 -10
-16 -15 -15 -15 -15 -15 -16 -15 -14 -14 -13 -13 -12 -12 -12 -12 -11 -10 -10 -9 -10 -10 -10 -10 -10 -10 -11 -11 -10 -10 -11 -11 -11 -11 -12 -11 -11 -11 -12 -11 -11 -11 -11 -11 -10 -10 -10 -10 -10
-15 -15 -15 -15 -15 -15 -15 -13 -13 -13 -13 -14 -13 -12 -11 -11 -11 -10 -10 -10 -10 -10 -10 -11 -11 -11 -10 -11 -11 -11 -11 -11 -11 -11 -11 -12 -12 -11 -12 -12 -12 -12 -11 -12 -12 -11 -10 -11 -10
-16 -16 -16 -15 -14 -14 -14 -14 -13 -14 -14 -14 -15 -14 -12 -11 -11 -11 -12 -12 -13 -12 -12 -11 -11 -11 -12 -12 -12 -11 -11 -11 -11 -11 -11 -12 -12 -11 -11 -12 -12 -12 -13 -13 -12 -11 -10 -10 -11
-17 -16 -16 -15 -15 -14 -15 -15 -14 -14 -14 -14 -14 -14 -14 -13 -12 -12 -12 -13 -13 -13 -13 -13 -12 -11 -11 -11 -12 -12 -12 -12 -12 -12 -11 -12 -12 -12 -11 -10 -10 -12 -13 -12 -13 -12 -11 -11 -11
-16 -16 -15 -16 -15 -14 -14 -14 -13 -14 -14 -14 -14 -14 -14 -15 -14 -14 -14 -14 -14 -15 -14 -14 -13 -13 -12 -12 -12 -11 -12 -13 -12 -12 -12 -13 -12 -12 -12 -12 -12 -11 -11 -10 -13 -13 -12 -12 -12
-16 -16 -15 -15 -15 -14 -14 -14 -14 -14 -15 -15 -15 -15 -14 -14 -14 -14 -14 -15 -15 -15 -15 -15 -14 -15 -14 -13 -13 -13 -13 -12 -13 -13 -13 -12 -13 -13 -12 -12 -12 -12 -12 -9 -11 -13 -12 -13 -12
-16 -16 -16 -15 -15 -15 -15 -15 -16 -15 -14 -15 -15 -13 -13 -13 -14 -15 -13 -13 -13 -13 -14 -14 -14 -15 -15 -15 -16 -15 -14 -14 -13 -13 -13 -12 -12 -12 -12 -12 -12 -12 -12 -12 -13 -13 -13 -13 -12
-16 -16 -16 -16 -16 -16 -15 -16 -16 -16 -16 -15 -14 -14 -14 -14 -13 -12 -11 -12 -12 -11 -11 -12 -12 -15 -15 -15 -15 -15 -16 -16 -15 -14 -13 -13 -12 -12 -12 -11 -11 -12 -13 -13 -13 -13 -13 -13 -12
-16 -16 -16 -16 -16 -16 -16 -16 -15 -15 -15 -15 -15 -15 -14 -13 -12 -13 -13 -12 -12 -12 -13 -13 -13 -13 -13 -14 -16 -16 -16 -16 -16 -16 -15 -14 -13 -13 -12 -11 -11 -11 -12 -12 -12 -12 -13 -13 -12
-16 -16 -16 -16 -16 -16 -16 -14 -16 -17 -17 -16 -15 -14 -13 -13 -14 -14 -13 -13 -13 -12 -12 -12 -12 -13 -13 -14 -14 -15 -16 -17 -17 -17 -17 -16 -15 -14 -13 -12 -12 -11 -11 -11 -11 -12 -13 -12 -11
Height
5867 5870 5870 5871 5875 5876 5883 5893 5898 5900 5899 5895 5897 5905 5901 5899 5897 5899 5907 5909 5910 5912 5914 5916 5917 5918 5919 5919 5919 5919 5919 5919 5921 5922 5924 5924 5924 5924 5923 5923 5922 5921 5921 5920 5919 5918 5917 5915 5914
5858 5861 5864 5862 5864 5869 5881 5890 5894 5899 5893 5893 5896 5902 5895 5895 5896 5900 5909 5909 5909 5911 5913 5914 5915 5917 5918 5918 5918 5918 5918 5919 5919 5921 5922 5923 5923 5923 5923 5923 5922 5921 5920 5920 5919 5918 5916 5916 5915
5850 5850 5855 5855 5856 5861 5877 5885 5888 5883 5882 5883 5888 5894 5889 5887 5889 5894 5908 5907 5907 5910 5911 5912 5913 5914 5916 5917 5917 5917 5917 5918 5918 5919 5920 5921 5922 5923 5922 5922 5922 5921 5920 5919 5918 5917 5916 5915 5915
5840 5840 5844 5843 5848 5860 5872 5879 5881 5878 5873 5879 5880 5881 5884 5882 5886 5890 5901 5904 5903 5905 5907 5909 5910 5911 5912 5914 5915 5916 5916 5917 5917 5918 5919 5919 5920 5921 5921 5920 5920 5920 5919 5918 5917 5916 5916 5915 5915
5826 5829 5831 5835 5841 5853 5865 5869 5866 5868 5862 5876 5874 5867 5876 5878 5881 5877 5893 5899 5899 5902 5904 5905 5907 5909 5909 5910 5912 5913 5914 5914 5915 5916 5917 5918 5918 5918 5919 5919 5918 5918 5918 5917 5916 5915 5915 5914 5914
5811 5816 5818 5825 5835 5844 5858 5862 5853 5858 5864 5867 5867 5862 5866 5869 5871 5871 5877 5891 5896 5896 5899 5901 5903 5906 5907 5908 5909 5910 5911 5912 5913 5914 5915 5915 5916 5916 5916 5916 5916 5916 5916 5915 5915 5914 5913 5913 5912
5797 5795 5804 5810 5819 5831 5849 5853 5844 5851 5854 5858 5857 5855 5857 5860 5863 5868 5869 5882 5892 5891 5893 5896 5898 5901 5903 5905 5905 5906 5908 5910 5910 5910 5912 5913 5913 5914 5914 5914 5914 5914 5914 5914 5913 5913 5912 5912 5911
5780 5781 5787 5794 5804 5816 5833 5837 5832 5840 5844 5847 5850 5847 5848 5850 5854 5862 5866 5870 5882 5887 5885 5889 5892 5894 5897 5899 5901 5902 5903 5905 5907 5908 5909 5910 5910 5911 5911 5912 5912 5911 5911 5912 5912 5911 5911 5910 5909
5765 5763 5768 5780 5790 5805 5821 5822 5823 5830 5828 5836 5838 5838 5837 5839 5847 5858 5863 5865 5870 5878 5880 5881 5883 5885 5888 5891 5894 5896 5897 5899 5901 5903 5904 5906 5907 5907 5908 5908 5909 5909 5909 5909 5909 5909 5908 5908 5907
5752 5754 5759 5772 5783 5793 5806 5814 5820 5818 5819 5824 5829 5831 5833 5832 5840 5848 5858 5860 5857 5870 5873 5870 5871 5873 5879 5883 5886 5889 5891 5893 5895 5896 5898 5900 5902 5903 5904 5906 5905 5905 5905 5906 5906 5906 5905 5906 5905
5749 5748 5759 5769 5781 5790 5798 5800 5801 5806 5809 5820 5823 5821 5830 5826 5832 5844 5849 5850 5854 5857 5861 5857 5857 5864 5870 5876 5879 5882 5884 5886 5887 5890 5892 5894 5896 5898 5900 5901 5902 5902 5901 5901 5901 5901 5901 5902 5901
5748 5753 5761 5768 5778 5791 5791 5790 5790 5794 5809 5815 5818 5819 5830 5826 5828 5839 5845 5847 5849 5850 5843 5820 5849 5845 5856 5866 5869 5872 5875 5878 5881 5883 5884 5886 5889 5891 5894 5895 5896 5897 5897 5897 5897 5897 5896 5896 5897
5752 5756 5760 5765 5769 5778 5779 5780 5787 5789 5799 5805 5810 5814 5820 5824 5820 5831 5838 5840 5844 5842 5836 5835 5842 5838 5844 5849 5850 5854 5864 5869 5871 5874 5876 5879 5882 5884 5887 5887 5889 5890 5891 5892 5891 5891 5891 5891 5891
5755 5757 5758 5761 5767 5772 5772 5781 5787 5793 5796 5798 5803 5807 5811 5816 5818 5820 5828 5834 5835 5834 5824 5822 5828 5835 5839 5807 5822 5843 5847 5854 5861 5867 5870 5871 5874 5876 5878 5879 5881 5882 5883 5884 5884 5885 5885 5886 5886
5753 5753 5757 5759 5763 5767 5769 5775 5783 5786 5786 5791 5795 5800 5804 5807 5809 5813 5819 5823 5826 5826 5822 5819 5824 5833 5840 5833 5828 5840 5844 5844 5845 5854 5859 5863 5864 5868 5869 5871 5873 5874 5875 5876 5877 5877 5879 5879 5880
5751 5751 5752 5754 5758 5764 5767 5772 5776 5778 5780 5785 5788 5791 5796 5799 5802 5804 5809 5815 5817 5818 5819 5821 5823 5826 5833 5834 5833 5833 5837 5838 5843 5846 5847 5851 5854 5854 5858 5859 5864 5866 5867 5869 5870 5870 5871 5874 5872
5750 5754 5757 5759 5759 5762 5763 5767 5771 5772 5775 5778 5782 5784 5788 5791 5794 5797 5801 5804 5806 5808 5810 5808 5813 5815 5817 5822 5821 5822 5825 5830 5835 5838 5841 5845 5843 5844 5849 5852 5855 5859 5858 5859 5861 5864 5864 5866 5866
5748 5749 5752 5754 5760 5759 5758 5760 5764 5766 5768 5770 5772 5776 5781 5784 5787 5790 5793 5796 5797 5799 5802 5805 5801 5799 5806 5811 5814 5813 5814 5819 5825 5830 5831 5833 5835 5837 5839 5841 5844 5845 5848 5851 5853 5853 5853 5855 5857
5745 5747 5749 5752 5752 5753 5756 5757 5756 5759 5760 5763 5766 5770 5774 5777 5778 5781 5784 5788 5788 5790 5791 5795 5797 5792 5790 5794 5799 5804 5804 5810 5813 5817 5821 5823 5824 5826 5828 5830 5833 5835 5836 5840 5840 5840 5843 5844 5845
5741 5741 5743 5747 5749 5751 5752 5752 5752 5755 5759 5761 5761 5762 5764 5767 5771 5773 5775 5776 5779 5778 5779 5782 5786 5787 5780 5782 5788 5794 5797 5796 5801 5801 5804 5812 5815 5817 5818 5820 5822 5824 5825 5825 5826 5829 5833 5832 5832
5733 5735 5739 5742 5744 5744 5745 5745 5748 5753 5752 5753 5754 5756 5758 5759 5758 5759 5761 5761 5764 5764 5765 5767 5772 5777 5776 5771 5773 5778 5784 5786 5787 5790 5795 5800 5804 5806 5808 5807 5810 5812 5813 5814 5817 5818 5821 5823 5824
5732 5735 5736 5739 5740 5740 5740 5740 5747 5748 5748 5749 5748 5745 5745 5745 5745 5749 5753 5756 5759 5760 5762 5759 5760 5765 5768 5767 5763 5764 5768 5774 5779 5779 5781 5783 5785 5791 5792 5795 5795 5799 5798 5799 5802 5807 5810 5811 5813
5728 5729 5727 5729 5732 5736 5742 5738 5743 5742 5739 5739 5737 5736 5738 5742 5743 5746 5748 5748 5747 5746 5744 5744 5746 5749 5752 5755 5755 5752 5753 5758 5761 5764 5766 5770 5774 5773 5774 5778 5783 5781 5781 5786 5791 5795 5800 5802 5804
5722 5722 5725 5728 5730 5731 5735 5730 5734 5732 5731 5730 5731 5732 5733 5734 5736 5736 5736 5737 5737 5736 5734 5733 5732 5732 5733 5736 5739 5739 5738 5740 5745 5750 5752 5754 5757 5763 5761 5764 5764 5764 5766 5771 5778 5782 5786 5792 5793
5715 5718 5720 5722 5722 5729 5724 5727 5729 5726 5725 5722 5724 5726 5729 5729 5728 5728 5727 5726 5725 5722 5719 5716 5715 5716 5717 5717 5716 5720 5722 5723 5725 5729 5733 5736 5741 5746 5749 5752 5753 5750 5736 5749 5759 5766 5774 5778 5781
5709 5711 5712 5713 5716 5721 5721 5721 5725 5717 5718 5718 5718 5719 5719 5719 5718 5718 5719 5716 5712 5711 5707 5702 5699 5698 5695 5695 5696 5695 5698 5700 5703 5706 5710 5714 5718 5727 5733 5736 5734 5731 5736 5743 5739 5747 5755 5762 5765
5706 5706 5709 5707 5711 5712 5717 5719 5714 5711 5711 5709 5707 5709 5710 5710 5711 5707 5702 5703 5703 5700 5695 5690 5685 5680 5678 5675 5675 5675 5675 5676 5680 5684 5685 5690 5695 5704 5712 5718 5719 5717 5726 5724 5731 5739 5743 5746 5749
5699 5702 5702 5702 5701 5703 5706 5708 5708 5706 5703 5700 5701 5701 5700 5696 5694 5691 5688 5686 5682 5676 5672 5667 5667 5666 5663 5660 5659 5657 5655 5652 5653 5658 5663 5667 5674 5682 5691 5703 5706 5706 5706 5711 5719 5725 5731 5733 5734
5694 5695 5695 5695 5694 5694 5696 5701 5700 5698 5694 5694 5692 5689 5685 5681 5681 5679 5675 5671 5668 5663 5658 5653 5648 5643 5640 5643 5641 5636 5634 5632 5633 5635 5637 5644 5651 5659 5671 5683 5688 5690 5690 5697 5705 5711 5713 5717 5720
5686 5687 5688 5686 5690 5686 5686 5693 5696 5693 5688 5688 5680 5679 5676 5676 5676 5672 5667 5661 5653 5647 5641 5634 5630 5627 5622 5618 5615 5614 5611 5609 5610 5614 5615 5620 5624 5634 5648 5660 5666 5672 5676 5686 5691 5686 5694 5695 5698
Wind_Speed
38 37 37 38 41 40 34 22 19 20 19 24 19 34 36 38 38 38 26 15 17 20 19 17 15 12 11 10 7 6 8 7 7 7 8 9 10 9 8 7 6 4 2 2 4 5 6 7 6
36 41 44 45 46 43 35 25 20 21 28 25 27 33 40 44 43 40 34 23 20 22 22 19 17 14 13 13 13 10 8 7 7 9 10 10 11 10 9 8 6 4 1 3 4 5 6 5 7
37 41 46 51 50 47 35 27 27 26 27 35 32 32 43 46 50 42 34 28 28 25 23 20 18 16 13 13 14 14 13 11 9 10 10 10 10 11 9 8 6 3 1 2 4 5 5 5 6
45 48 48 54 56 46 39 26 34 20 27 29 34 32 41 46 47 49 44 32 27 24 25 26 20 19 17 15 14 14 14 14 12 12 10 10 10 10 9 9 7 6 4 3 3 3 4 4 5
53 56 57 55 57 53 41 33 40 31 31 25 32 43 39 48 50 56 49 39 34 30 27 28 25 22 20 19 17 16 15 13 13 12 11 10 11 11 10 10 9 8 8 5 3 3 3 4 5
55 60 63 61 57 55 47 40 46 42 15 20 24 35 42 47 54 55 50 42 35 36 33 32 30 26 26 22 20 18 17 16 13 12 12 12 13 12 12 10 10 9 7 6 5 4 4 5 6
54 62 66 66 61 57 53 45 54 49 32 33 31 35 41 53 55 54 50 42 34 38 39 36 35 33 28 27 24 23 22 19 20 19 17 14 13 13 13 12 11 10 9 8 7 7 7 8 6
46 58 64 70 67 62 55 50 54 48 42 38 36 36 41 49 54 52 44 42 38 36 40 40 39 37 35 31 32 29 29 26 24 23 22 19 17 17 16 14 13 11 10 10 9 9 8 8 8
35 52 62 67 67 58 48 57 59 57 56 44 39 44 43 49 52 46 44 41 40 39 41 41 41 41 40 37 35 34 32 32 30 28 26 23 23 21 20 16 14 13 13 13 13 12 11 10 10
35 46 55 58 57 53 41 42 48 53 50 61 40 42 47 54 51 46 41 42 46 39 41 46 47 45 43 42 39 38 37 35 33 30 29 28 26 23 21 21 20 18 19 19 19 16 14 14 13
29 42 44 45 41 38 41 35 36 49 51 39 57 51 51 54 53 49 43 51 44 45 44 52 47 42 41 41 41 39 39 37 35 33 31 30 29 27 24 23 24 23 21 20 19 17 17 18 17
23 25 28 32 31 34 29 30 38 39 41 33 39 51 52 53 48 38 46 49 47 50 54 33 49 51 41 45 47 43 42 39 37 36 35 34 32 30 27 26 28 26 25 23 22 21 21 21 20
16 18 27 30 32 34 30 32 37 38 44 38 35 37 40 40 53 44 41 44 47 49 55 58 26 41 51 52 54 49 44 43 42 41 40 38 36 34 32 32 31 30 30 28 27 27 25 26 25
15 15 24 25 33 32 26 33 39 39 37 37 31 33 35 32 37 48 45 40 37 43 49 54 51 46 44 37 53 52 47 46 41 44 43 45 44 41 39 39 38 36 36 36 35 33 32 31 29
16 17 13 22 36 32 37 26 25 32 38 34 31 32 35 32 34 35 32 37 34 39 37 40 38 50 53 51 48 50 50 36 38 41 50 49 53 50 45 45 43 43 41 43 42 38 37 37 36
21 21 24 27 30 39 36 27 26 28 32 30 31 32 30 28 28 32 32 32 33 35 39 38 40 42 38 33 45 33 28 37 45 51 40 45 52 51 52 50 51 47 48 48 48 46 44 42 41
15 3 6 4 2 11 22 21 20 24 27 29 28 28 26 26 27 27 30 32 37 39 39 48 46 47 43 30 31 41 37 36 40 41 42 41 42 44 40 40 43 48 56 58 50 52 51 46 46
13 8 6 7 5 12 19 22 18 24 28 29 29 29 27 28 28 28 30 31 34 37 41 43 47 49 44 41 41 43 43 46 46 47 46 47 47 48 47 45 45 49 50 46 47 47 59 49 52
13 9 17 10 6 11 10 16 19 24 27 30 32 29 26 27 31 33 34 35 38 38 40 41 43 48 50 48 45 47 51 51 53 55 55 53 52 52 51 50 53 52 52 48 48 48 45 40 45
14 23 26 24 18 18 25 26 30 28 23 23 26 29 31 33 34 35 34 36 40 45 47 47 47 50 55 54 53 51 54 58 57 63 63 58 59 58 58 58 57 58 53 54 53 49 48 45 41
31 31 31 35 32 30 33 40 33 26 28 28 30 31 32 34 37 40 44 48 48 51 53 54 53 53 57 62 61 59 56 57 62 63 62 58 56 57 60 60 58 58 59 56 57 56 51 45 40
26 23 19 37 39 41 38 37 26 19 18 12 16 28 37 43 47 47 47 47 47 48 51 53 52 53 57 62 66 65 63 61 60 62 62 63 61 59 60 60 59 57 60 60 54 54 51 50 41
14 15 21 27 38 40 29 28 5 14 16 19 25 30 33 33 35 33 33 34 35 42 46 49 50 51 51 54 58 63 64 64 66 63 65 64 63 63 63 64 59 62 61 56 53 55 52 46 44
22 23 22 20 15 19 6 19 15 20 20 26 32 35 36 37 35 36 38 40 44 48 50 51 55 58 59 58 55 57 62 63 62 61 66 65 65 64 66 62 61 70 72 62 54 49 50 52 47
24 21 20 22 21 12 13 17 10 17 22 27 35 38 40 42 43 44 47 49 53 57 59 61 61 62 63 63 65 63 60 61 63 62 63 67 68 66 67 67 67 75 74 56 56 52 50 50 49
29 23 17 16 14 12 20 19 10 20 20 29 32 37 43 46 48 50 52 55 54 51 54 59 65 66 67 68 68 67 67 68 66 67 66 66 67 66 67 68 69 74 70 59 52 52 50 51 52
23 24 17 26 26 26 24 22 26 32 33 38 43 46 46 46 42 42 42 33 31 34 34 36 40 45 55 57 63 68 69 70 71 73 74 74 71 68 67 66 70 75 68 64 55 54 57 57 56
26 25 28 27 31 29 24 25 28 27 34 42 40 40 41 39 37 31 34 37 40 45 52 53 47 43 46 48 51 57 61 70 75 76 79 79 77 73 70 65 66 67 68 66 62 54 58 62 62
30 28 29 30 33 30 27 23 27 35 39 39 43 46 40 35 28 34 40 42 46 50 53 54 56 57 56 52 55 59 60 64 68 71 80 83 81 79 73 67 68 67 69 66 59 64 65 70 65
33 35 34 31 22 29 28 17 22 33 42 39 43 37 35 31 30 35 41 45 50 53 54 57 57 55 53 57 58 59 62 64 64 64 74 74 83 84 79 71 70 70 71 67 66 72 73 68 65
Wind_Direction
247 243 239 239 238 238 232 223 208 187 194 238 205 225 239 238 214 226 231 208 235 244 251 255 255 252 260 260 261 242 229 223 213 221 233 246 253 248 242 239 233 218 183 103 71 61 52 50 46
251 246 242 239 238 236 232 219 203 197 215 238 240 224 233 243 244 244 240 237 238 244 245 249 252 257 263 266 262 259 247 231 223 219 235 247 257 256 251 252 251 238 187 61 51 50 52 38 35
250 248 243 241 240 236 224 218 195 190 258 246 249 236 233 237 239 239 238 246 245 246 244 243 245 252 262 263 265 263 263 259 235 228 235 245 253 257 260 271 275 279 341 38 30 28 31 32 17
255 251 246 244 242 236 225 208 210 200 263 238 242 237 234 228 239 245 234 234 238 239 241 245 246 244 250 254 261 261 251 252 253 246 242 239 246 253 262 269 276 287 300 339 354 9 8 20 6
252 251 250 245 243 237 226 202 202 202 251 238 240 240 229 233 241 249 241 234 233 241 243 237 243 243 242 242 250 261 252 242 238 235 238 248 254 260 265 269 276 285 293 291 320 346 347 345 347
253 247 246 247 243 240 227 207 202 191 217 217 231 242 238 233 235 241 239 230 224 238 241 239 241 243 245 246 245 245 250 244 234 236 244 250 255 263 264 264 269 276 282 296 315 315 323 331 334
255 246 241 239 236 233 227 220 218 196 192 207 224 230 228 235 236 236 244 237 228 232 241 246 245 245 245 244 242 244 248 251 248 249 253 258 261 266 267 267 274 282 292 297 308 313 323 321 319
258 244 239 234 231 227 218 215 226 204 189 206 206 231 232 234 233 233 238 242 237 235 243 245 249 247 245 243 245 247 248 250 253 260 259 260 262 266 265 264 267 275 285 295 305 313 314 305 303
255 239 235 230 228 224 219 215 225 216 200 197 212 211 226 237 236 230 232 239 236 234 239 245 245 246 246 244 243 246 249 250 251 255 258 263 266 268 263 255 264 275 282 288 293 293 290 287 292
251 238 233 229 226 219 200 207 226 228 220 205 204 224 228 236 237 239 228 235 244 234 236 241 240 240 243 247 247 246 248 249 251 252 255 259 262 260 257 258 266 270 278 281 282 277 276 280 285
253 236 232 226 223 208 198 221 231 236 225 221 208 218 223 231 241 239 235 233 233 244 238 230 226 231 239 245 247 247 248 249 251 253 252 257 256 255 250 253 262 268 271 271 270 266 272 275 276
245 235 231 213 212 208 208 238 238 228 224 222 218 231 227 244 242 247 242 243 239 242 242 226 224 217 227 236 241 240 238 239 244 247 249 249 247 249 248 249 253 258 264 266 263 263 264 265 270
247 225 220 204 191 193 237 227 243 251 228 238 253 254 261 263 268 246 241 241 241 241 249 249 243 218 229 224 228 225 233 232 232 235 238 241 243 245 245 247 248 250 253 254 256 258 261 262 263
233 233 215 211 192 204 229 230 234 245 252 249 249 258 262 259 270 267 253 243 243 244 247 253 245 251 231 227 221 227 218 222 233 241 240 244 241 242 243 243 244 243 246 247 249 252 258 259 262
219 235 252 237 197 208 221 224 231 235 243 243 246 249 257 254 255 272 276 267 267 254 258 267 276 256 250 263 232 230 242 225 224 237 244 243 247 243 237 243 245 248 248 251 248 252 255 257 259
236 228 216 230 212 214 230 237 243 239 235 235 239 244 247 250 246 250 263 265 269 274 274 275 284 278 262 265 250 263 257 238 237 243 252 249 248 252 237 235 239 239 255 251 254 255 256 254 255
241 308 341 265 192 216 236 240 246 244 240 238 240 247 248 247 247 247 247 246 243 243 264 281 281 282 283 271 268 270 260 252 261 259 262 268 270 272 268 262 269 271 250 247 252 255 261 262 257
180 176 331 347 303 270 278 279 261 248 251 257 255 248 248 253 255 253 253 250 251 251 250 250 261 273 271 267 259 261 261 265 262 260 262 265 266 265 267 264 267 269 266 259 272 279 257 253 256
176 217 244 206 166 272 264 258 250 230 245 252 257 262 258 251 255 257 253 253 255 255 254 253 252 257 259 259 254 255 256 254 256 257 257 257 257 260 262 263 268 269 270 271 271 277 265 261 271
231 240 210 186 185 195 214 230 246 254 275 275 268 265 265 263 258 252 250 254 252 255 252 250 249 251 257 258 254 246 247 253 253 254 252 250 253 256 257 259 260 260 261 266 268 268 270 273 280
213 226 211 195 206 211 229 234 251 261 253 256 264 271 272 269 265 258 254 251 250 252 256 253 249 247 249 254 256 252 247 246 248 252 256 256 255 254 255 256 257 261 262 263 264 264 266 266 263
250 250 241 222 221 222 236 254 269 276 273 284 264 253 251 254 257 262 266 269 270 270 265 262 263 259 255 255 257 257 255 251 251 250 250 251 250 248 251 253 257 257 257 255 255 258 264 258 258
244 225 221 226 230 242 255 267 262 241 216 240 244 257 265 264 268 276 282 281 275 269 269 267 264 260 257 257 258 261 261 259 255 251 249 248 249 252 248 248 251 252 251 251 252 255 255 260 257
233 240 248 260 260 255 232 248 208 195 246 253 253 251 262 270 278 286 287 286 284 282 275 269 267 266 264 259 256 258 261 260 257 257 256 251 249 247 252 254 250 249 247 245 248 255 254 254 256
227 248 246 249 251 256 270 251 231 240 244 251 247 247 252 256 262 268 276 281 284 283 281 279 273 268 265 262 263 258 255 257 259 255 251 253 252 249 249 253 254 256 247 239 236 248 255 256 255
230 236 253 248 246 252 225 255 228 255 250 256 255 253 252 257 264 270 277 274 278 280 275 272 269 267 267 265 261 259 257 253 251 252 251 248 247 247 247 249 251 255 258 240 229 239 246 251 254
224 225 237 251 261 258 237 251 264 259 249 245 253 257 264 272 280 265 267 284 279 275 274 275 277 276 263 258 259 258 256 253 252 249 249 249 245 244 243 245 251 256 259 264 264 265 247 249 252
227 233 247 264 267 267 261 250 232 242 250 258 263 268 272 267 268 290 302 305 300 296 295 295 290 279 274 270 267 264 261 259 252 246 245 246 247 244 242 241 246 252 257 255 257 259 255 253 254
242 248 257 262 268 269 264 244 236 236 245 259 270 275 276 282 294 306 306 303 296 294 295 296 293 292 289 278 269 267 263 262 260 258 249 240 240 242 240 238 239 244 249 253 255 253 251 252 255
251 256 261 264 255 266 266 248 238 252 263 272 264 267 272 286 304 302 298 297 299 304 302 299 297 296 292 291 290 284 274 267 263 259 255 255 243 234 236 234 234 236 241 246 244 245 249 247 255